Time,TemperatureF,DewpointF,PressureIn,WindDirection,WindDirectionDegrees,WindSpeedMPH,WindSpeedGustMPH,Humidity,HourlyPrecipIn,Conditions,Clouds,dailyrainin,SoftwareType,DateUTC
2013-06-24 00:03:00,67.1,62.5,29.84,WSW,241,0.0,0.0,85,0.00,,,0.60,VWS V14.01,2013-06-24 05:03:00,
2013-06-24 00:08:00,67.0,62.3,29.84,WSW,241,0.0,0.0,85,0.00,,,0.00,VWS V14.01,2013-06-24 05:08:00,
2013-06-24 00:13:00,66.9,62.2,29.84,WSW,241,0.0,0.0,85,0.00,,,0.00,VWS V14.01,2013-06-24 05:13:00,
2013-06-24 00:18:00,66.8,62.5,29.84,WSW,241,0.0,0.0,86,0.00,,,0.00,VWS V14.01,2013-06-24 05:18:00,
2013-06-24 00:23:00,66.8,62.2,29.84,WSW,241,0.0,0.0,85,0.00,,,0.00,VWS V14.01,2013-06-24 05:23:00,
2013-06-24 00:28:00,66.7,62.0,29.84,WSW,241,0.0,0.0,85,0.00,,,0.00,VWS V14.01,2013-06-24 05:28:00,
2013-06-24 00:33:00,66.7,62.0,29.84,WSW,241,0.0,0.0,85,0.00,,,0.00,VWS V14.01,2013-06-24 05:33:00,
2013-06-24 00:39:00,66.5,62.2,29.84,WSW,241,0.0,0.0,86,0.00,,,0.00,VWS V14.01,2013-06-24 05:39:00,
2013-06-24 00:44:00,66.4,62.1,29.84,WSW,251,1.0,2.0,86,0.00,,,0.00,VWS V14.01,2013-06-24 05:44:00,
2013-06-24 00:49:00,66.4,62.1,29.85,WSW,251,0.0,2.0,86,0.00,,,0.00,VWS V14.01,2013-06-24 05:49:00,
2013-06-24 00:54:00,66.3,61.7,29.85,WSW,251,0.0,2.0,85,0.00,,,0.00,VWS V14.01,2013-06-24 05:54:00,
2013-06-24 00:59:00,66.3,62.0,29.85,WSW,251,0.0,2.0,86,0.00,,,0.00,VWS V14.01,2013-06-24 05:59:00,
2013-06-24 01:04:00,66.2,61.9,29.85,WSW,251,0.0,0.0,86,0.00,,,0.00,VWS V14.01,2013-06-24 06:04:00,
2013-06-24 01:10:00,66.2,61.9,29.85,WSW,251,0.0,0.0,86,0.00,,,0.00,VWS V14.01,2013-06-24 06:10:00,
2013-06-24 01:15:00,66.1,61.8,29.85,WSW,251,0.0,0.0,86,0.00,,,0.00,VWS V14.01,2013-06-24 06:15:00,
2013-06-24 01:20:00,66.0,61.7,29.85,WSW,251,0.0,0.0,86,0.00,,,0.00,VWS V14.01,2013-06-24 06:20:00,
2013-06-24 01:26:00,65.9,61.6,29.85,WSW,251,0.0,0.0,86,0.00,,,0.00,VWS V14.01,2013-06-24 06:26:00,
2013-06-24 01:31:00,65.8,61.5,29.85,WSW,251,0.0,0.0,86,0.00,,,0.00,VWS V14.01,2013-06-24 06:31:00,
2013-06-24 01:38:00,65.7,61.1,29.85,WSW,251,0.0,0.0,85,0.00,,,0.00,VWS V14.01,2013-06-24 06:38:00,
2013-06-24 01:43:00,65.7,61.4,29.85,WSW,251,0.0,0.0,86,0.00,,,0.00,VWS V14.01,2013-06-24 06:43:00,
2013-06-24 01:49:00,65.6,61.3,29.85,WSW,251,0.0,0.0,86,0.00,,,0.00,VWS V14.01,2013-06-24 06:49:00,
2013-06-24 01:54:00,65.6,61.0,29.85,WSW,251,0.0,0.0,85,0.00,,,0.00,VWS V14.01,2013-06-24 06:54:00,
2013-06-24 01:59:00,65.5,60.9,29.85,WSW,251,0.0,0.0,85,0.00,,,0.00,VWS V14.01,2013-06-24 06:59:00,
2013-06-24 02:04:00,65.4,61.1,29.85,WSW,251,0.0,0.0,86,0.00,,,0.00,VWS V14.01,2013-06-24 07:04:00,
2013-06-24 02:09:00,65.4,61.1,29.85,WSW,251,0.0,0.0,86,0.00,,,0.00,VWS V14.01,2013-06-24 07:09:00,
2013-06-24 02:15:00,65.3,61.0,29.85,WSW,251,0.0,0.0,86,0.00,,,0.00,VWS V14.01,2013-06-24 07:15:00,
2013-06-24 02:20:00,65.2,60.9,29.85,WSW,251,0.0,0.0,86,0.00,,,0.00,VWS V14.01,2013-06-24 07:20:00,
2013-06-24 02:25:00,65.1,60.8,29.85,WSW,251,0.0,0.0,86,0.00,,,0.00,VWS V14.01,2013-06-24 07:25:00,
2013-06-24 02:30:00,65.1,60.8,29.84,WSW,251,0.0,0.0,86,0.00,,,0.00,VWS V14.01,2013-06-24 07:30:00,
2013-06-24 02:35:00,65.0,60.7,29.84,WSW,251,0.0,0.0,86,0.00,,,0.00,VWS V14.01,2013-06-24 07:35:00,
2013-06-24 02:41:00,65.0,60.7,29.84,WSW,251,0.0,0.0,86,0.00,,,0.00,VWS V14.01,2013-06-24 07:41:00,
2013-06-24 02:46:00,64.9,60.6,29.84,WSW,251,0.0,0.0,86,0.00,,,0.00,VWS V14.01,2013-06-24 07:46:00,
2013-06-24 02:51:00,64.9,60.3,29.84,WSW,251,0.0,0.0,85,0.00,,,0.00,VWS V14.01,2013-06-24 07:51:00,
2013-06-24 02:56:00,64.8,60.5,29.84,WSW,251,0.0,0.0,86,0.00,,,0.00,VWS V14.01,2013-06-24 07:56:00,
2013-06-24 03:02:00,64.7,60.4,29.84,WSW,251,0.0,0.0,86,0.00,,,0.00,VWS V14.01,2013-06-24 08:02:00,
2013-06-24 03:07:00,64.6,60.3,29.84,WSW,251,0.0,0.0,86,0.00,,,0.00,VWS V14.01,2013-06-24 08:07:00,
2013-06-24 03:12:00,64.5,60.2,29.83,WSW,251,0.0,0.0,86,0.00,,,0.00,VWS V14.01,2013-06-24 08:12:00,
2013-06-24 03:17:00,64.3,60.0,29.84,WSW,251,0.0,0.0,86,0.00,,,0.00,VWS V14.01,2013-06-24 08:17:00,
2013-06-24 03:22:00,64.2,59.9,29.84,WSW,251,0.0,0.0,86,0.00,,,0.00,VWS V14.01,2013-06-24 08:22:00,
2013-06-24 03:28:00,64.2,59.9,29.84,WSW,251,0.0,0.0,86,0.00,,,0.00,VWS V14.01,2013-06-24 08:28:00,
2013-06-24 03:33:00,64.1,59.8,29.84,WSW,251,0.0,0.0,86,0.00,,,0.00,VWS V14.01,2013-06-24 08:33:00,
2013-06-24 03:38:00,64.1,59.5,29.84,WSW,251,0.0,0.0,85,0.00,,,0.00,VWS V14.01,2013-06-24 08:38:00,
2013-06-24 03:43:00,64.0,59.7,29.83,WSW,251,0.0,0.0,86,0.00,,,0.00,VWS V14.01,2013-06-24 08:43:00,
2013-06-24 03:48:00,64.0,59.4,29.83,WSW,251,0.0,0.0,85,0.00,,,0.00,VWS V14.01,2013-06-24 08:48:00,
2013-06-24 03:54:00,63.9,59.3,29.83,WSW,251,0.0,0.0,85,0.00,,,0.00,VWS V14.01,2013-06-24 08:54:00,
2013-06-24 03:59:00,63.9,59.3,29.83,WSW,250,0.0,1.0,85,0.00,,,0.00,VWS V14.01,2013-06-24 08:59:00,
2013-06-24 04:05:00,63.8,59.2,29.84,SE,131,0.0,0.0,85,0.00,,,0.00,VWS V14.01,2013-06-24 09:05:00,
2013-06-24 04:10:00,63.8,59.2,29.84,SE,131,0.0,0.0,85,0.00,,,0.00,VWS V14.01,2013-06-24 09:10:00,
2013-06-24 04:16:00,63.8,59.2,29.84,SE,131,0.0,0.0,85,0.00,,,0.00,VWS V14.01,2013-06-24 09:16:00,
2013-06-24 04:21:00,63.7,59.1,29.84,SE,131,0.0,0.0,85,0.00,,,0.00,VWS V14.01,2013-06-24 09:21:00,
2013-06-24 04:26:00,63.6,59.0,29.84,SE,131,0.0,0.0,85,0.00,,,0.00,VWS V14.01,2013-06-24 09:26:00,
2013-06-24 04:31:00,63.7,58.8,29.84,SE,131,0.0,0.0,84,0.00,,,0.00,VWS V14.01,2013-06-24 09:31:00,
2013-06-24 04:38:00,63.7,59.1,29.84,SE,131,0.0,0.0,85,0.00,,,0.00,VWS V14.01,2013-06-24 09:38:00,
2013-06-24 04:43:00,63.6,59.0,29.83,SE,131,0.0,0.0,85,0.00,,,0.00,VWS V14.01,2013-06-24 09:43:00,
2013-06-24 04:48:00,63.6,59.0,29.84,SE,131,0.0,0.0,85,0.00,,,0.00,VWS V14.01,2013-06-24 09:48:00,
2013-06-24 04:54:00,63.5,58.9,29.84,SE,131,0.0,0.0,85,0.00,,,0.00,VWS V14.01,2013-06-24 09:54:00,
2013-06-24 04:59:00,63.5,58.9,29.84,SE,131,0.0,0.0,85,0.00,,,0.00,VWS V14.01,2013-06-24 09:59:00,
2013-06-24 05:04:00,63.4,58.8,29.84,SE,131,0.0,0.0,85,0.00,,,0.00,VWS V14.01,2013-06-24 10:04:00,
2013-06-24 05:09:00,63.5,58.6,29.84,SE,131,0.0,0.0,84,0.00,,,0.00,VWS V14.01,2013-06-24 10:09:00,
2013-06-24 05:15:00,63.5,58.6,29.84,SE,131,0.0,0.0,84,0.00,,,0.00,VWS V14.01,2013-06-24 10:15:00,
2013-06-24 05:21:00,63.5,58.6,29.84,SE,131,0.0,0.0,84,0.00,,,0.00,VWS V14.01,2013-06-24 10:21:00,
2013-06-24 05:26:00,63.5,58.9,29.84,SE,131,0.0,0.0,85,0.00,,,0.00,VWS V14.01,2013-06-24 10:26:00,
2013-06-24 05:31:00,63.4,58.8,29.85,SE,131,0.0,1.0,85,0.00,,,0.00,VWS V14.01,2013-06-24 10:31:00,
2013-06-24 05:37:00,63.3,58.7,29.84,SE,131,0.0,0.0,85,0.00,,,0.00,VWS V14.01,2013-06-24 10:37:00,
2013-06-24 05:42:00,63.3,58.7,29.85,SE,131,0.0,0.0,85,0.00,,,0.00,VWS V14.01,2013-06-24 10:42:00,
2013-06-24 05:47:00,63.2,58.6,29.85,SE,131,0.0,0.0,85,0.00,,,0.00,VWS V14.01,2013-06-24 10:47:00,
2013-06-24 05:53:00,63.1,58.5,29.85,SE,131,0.0,0.0,85,0.00,,,0.00,VWS V14.01,2013-06-24 10:53:00,
2013-06-24 05:58:00,63.1,58.5,29.85,SE,131,0.0,0.0,85,0.00,,,0.00,VWS V14.01,2013-06-24 10:58:00,
2013-06-24 06:03:00,63.2,58.0,29.85,SE,131,0.0,0.0,83,0.00,,,0.00,VWS V14.01,2013-06-24 11:03:00,
2013-06-24 06:08:00,63.3,58.1,29.85,SE,131,0.0,0.0,83,0.00,,,0.00,VWS V14.01,2013-06-24 11:08:00,
2013-06-24 06:13:00,63.4,58.2,29.85,SE,131,0.0,0.0,83,0.00,,,0.00,VWS V14.01,2013-06-24 11:13:00,
2013-06-24 06:18:00,63.3,58.1,29.86,SE,131,0.0,0.0,83,0.00,,,0.00,VWS V14.01,2013-06-24 11:18:00,
2013-06-24 06:24:00,63.4,58.5,29.86,SE,131,0.0,0.0,84,0.00,,,0.00,VWS V14.01,2013-06-24 11:24:00,
2013-06-24 06:29:00,63.3,58.1,29.86,SE,131,0.0,0.0,83,0.00,,,0.00,VWS V14.01,2013-06-24 11:29:00,
2013-06-24 06:34:00,63.4,58.2,29.86,SE,131,0.0,0.0,83,0.00,,,0.00,VWS V14.01,2013-06-24 11:34:00,
2013-06-24 06:39:00,63.4,58.2,29.86,SE,131,0.0,0.0,83,0.00,,,0.00,VWS V14.01,2013-06-24 11:39:00,
2013-06-24 06:45:00,63.5,58.2,29.86,SE,131,0.0,0.0,83,0.00,,,0.00,VWS V14.01,2013-06-24 11:45:00,
2013-06-24 06:50:00,63.6,58.3,29.86,SE,131,0.0,0.0,83,0.00,,,0.00,VWS V14.01,2013-06-24 11:50:00,
2013-06-24 06:55:00,64.0,58.4,29.86,SE,131,0.0,0.0,82,0.00,,,0.00,VWS V14.01,2013-06-24 11:55:00,
2013-06-24 07:00:00,64.5,59.2,29.86,SE,131,0.0,1.0,83,0.00,,,0.00,VWS V14.01,2013-06-24 12:00:00,
2013-06-24 07:06:00,65.0,59.7,29.86,SE,131,0.0,0.0,83,0.00,,,0.00,VWS V14.01,2013-06-24 12:06:00,
2013-06-24 07:11:00,65.4,60.5,29.86,SE,131,0.0,0.0,84,0.00,,,0.00,VWS V14.01,2013-06-24 12:11:00,
2013-06-24 07:17:00,65.6,60.6,29.86,SE,131,0.0,0.0,84,0.00,,,0.00,VWS V14.01,2013-06-24 12:17:00,
2013-06-24 07:22:00,65.8,60.8,29.86,SE,131,1.0,1.0,84,0.00,,,0.00,VWS V14.01,2013-06-24 12:22:00,
2013-06-24 07:28:00,66.1,61.1,29.85,SE,131,0.0,1.0,84,0.00,,,0.00,VWS V14.01,2013-06-24 12:28:00,
2013-06-24 07:33:00,66.3,61.3,29.85,SE,131,0.0,1.0,84,0.00,,,0.00,VWS V14.01,2013-06-24 12:33:00,
2013-06-24 07:39:00,66.5,61.5,29.85,SE,131,0.0,0.0,84,0.00,,,0.00,VWS V14.01,2013-06-24 12:39:00,
2013-06-24 07:44:00,66.7,61.7,29.85,SE,131,0.0,1.0,84,0.00,,,0.00,VWS V14.01,2013-06-24 12:44:00,
2013-06-24 07:49:00,66.9,61.9,29.84,SE,131,0.0,1.0,84,0.00,,,0.00,VWS V14.01,2013-06-24 12:49:00,
2013-06-24 07:54:00,67.1,62.1,29.83,SE,131,0.0,1.0,84,0.00,,,0.00,VWS V14.01,2013-06-24 12:54:00,
2013-06-24 07:59:00,67.2,62.2,29.83,SE,124,1.0,3.0,84,0.00,,,0.00,VWS V14.01,2013-06-24 12:59:00,
2013-06-24 08:05:00,67.6,62.6,29.83,ESE,108,2.0,3.0,84,0.00,,,0.00,VWS V14.01,2013-06-24 13:05:00,
2013-06-24 08:10:00,68.0,62.7,29.83,SE,135,0.0,4.0,83,0.00,,,0.00,VWS V14.01,2013-06-24 13:10:00,
2013-06-24 08:15:00,68.5,65.1,29.83,SSE,164,3.0,4.0,89,0.00,,,0.00,VWS V14.01,2013-06-24 13:15:00,
2013-06-24 08:20:00,69.1,65.7,29.83,SE,131,2.0,4.0,89,0.00,,,0.00,VWS V14.01,2013-06-24 13:20:00,
2013-06-24 08:26:00,69.9,66.2,29.83,SSE,159,1.0,4.0,88,0.00,,,0.00,VWS V14.01,2013-06-24 13:26:00,
2013-06-24 08:31:00,70.4,66.7,29.83,South,178,1.0,4.0,88,0.00,,,0.00,VWS V14.01,2013-06-24 13:31:00,
2013-06-24 08:36:00,71.0,66.9,29.83,SE,140,2.0,2.0,87,0.00,,,0.00,VWS V14.01,2013-06-24 13:36:00,
2013-06-24 08:41:00,71.9,67.5,29.83,SE,126,1.0,3.0,86,0.00,,,0.00,VWS V14.01,2013-06-24 13:41:00,
2013-06-24 08:47:00,72.8,67.3,29.83,ESE,119,1.0,3.0,83,0.00,,,0.00,VWS V14.01,2013-06-24 13:47:00,
2013-06-24 08:52:00,73.8,67.6,29.84,SE,143,2.0,4.0,81,0.00,,,0.00,VWS V14.01,2013-06-24 13:52:00,
2013-06-24 08:57:00,74.4,66.3,29.84,ESE,116,2.0,4.0,76,0.00,,,0.00,VWS V14.01,2013-06-24 13:57:00,
2013-06-24 09:02:00,75.1,67.8,29.84,ESE,120,1.0,4.0,78,0.00,,,0.00,VWS V14.01,2013-06-24 14:02:00,
2013-06-24 09:07:00,75.4,66.2,29.85,SE,127,0.0,3.0,73,0.00,,,0.00,VWS V14.01,2013-06-24 14:07:00,
2013-06-24 09:12:00,75.8,65.3,29.85,SSE,152,1.0,3.0,70,0.00,,,0.00,VWS V14.01,2013-06-24 14:12:00,
2013-06-24 09:17:00,76.4,67.5,29.85,SSE,152,1.0,3.0,74,0.00,,,0.00,VWS V14.01,2013-06-24 14:17:00,
2013-06-24 09:23:00,76.8,66.3,29.85,SE,139,0.0,3.0,70,0.00,,,0.00,VWS V14.01,2013-06-24 14:23:00,
2013-06-24 09:28:00,77.2,66.7,29.85,SE,137,0.0,3.0,70,0.00,,,0.00,VWS V14.01,2013-06-24 14:28:00,
2013-06-24 09:33:00,77.5,67.4,29.85,SE,137,1.0,3.0,71,0.00,,,0.00,VWS V14.01,2013-06-24 14:33:00,
2013-06-24 09:38:00,78.0,65.7,29.85,SE,131,0.0,2.0,66,0.00,,,0.00,VWS V14.01,2013-06-24 14:38:00,
2013-06-24 09:43:00,78.3,64.7,29.85,SE,131,0.0,2.0,63,0.00,,,0.00,VWS V14.01,2013-06-24 14:43:00,
2013-06-24 09:49:00,78.6,65.4,29.85,ESE,118,2.0,3.0,64,0.00,,,0.00,VWS V14.01,2013-06-24 14:49:00,
2013-06-24 09:54:00,78.8,66.1,29.85,SE,126,0.0,3.0,65,0.00,,,0.00,VWS V14.01,2013-06-24 14:54:00,
2013-06-24 09:59:00,78.9,66.2,29.85,SE,129,1.0,3.0,65,0.00,,,0.00,VWS V14.01,2013-06-24 14:59:00,
2013-06-24 10:05:00,79.1,66.3,29.85,ESE,119,0.0,2.0,65,0.00,,,0.00,VWS V14.01,2013-06-24 15:05:00,
2013-06-24 10:10:00,79.4,66.6,29.85,SE,130,2.0,4.0,65,0.00,,,0.00,VWS V14.01,2013-06-24 15:10:00,
2013-06-24 10:16:00,79.8,67.0,29.85,SE,141,3.0,5.0,65,0.00,,,0.00,VWS V14.01,2013-06-24 15:16:00,
2013-06-24 10:21:00,80.1,66.8,29.84,WSW,250,1.0,7.0,64,0.00,,,0.00,VWS V14.01,2013-06-24 15:21:00,
2013-06-24 10:27:00,80.3,67.5,29.84,WNW,289,0.0,7.0,65,0.00,,,0.00,VWS V14.01,2013-06-24 15:27:00,
2013-06-24 10:32:00,80.3,67.5,29.85,SE,137,2.0,7.0,65,0.00,,,0.00,VWS V14.01,2013-06-24 15:32:00,
2013-06-24 10:37:00,80.0,68.1,29.84,SE,141,4.0,6.0,67,0.00,,,0.00,VWS V14.01,2013-06-24 15:37:00,
2013-06-24 10:42:00,79.8,68.7,29.84,ENE,76,1.0,6.0,69,0.00,,,0.00,VWS V14.01,2013-06-24 15:42:00,
2013-06-24 10:47:00,79.8,68.3,29.84,ESE,108,0.0,6.0,68,0.00,,,0.00,VWS V14.01,2013-06-24 15:47:00,
2013-06-24 10:52:00,79.7,67.8,29.84,ESE,116,2.0,6.0,67,0.00,,,0.00,VWS V14.01,2013-06-24 15:52:00,
2013-06-24 10:58:00,79.7,68.2,29.84,ESE,104,0.0,6.0,68,0.00,,,0.00,VWS V14.01,2013-06-24 15:58:00,
2013-06-24 11:03:00,79.9,68.4,29.84,WSW,246,1.0,6.0,68,0.00,,,0.00,VWS V14.01,2013-06-24 16:03:00,
2013-06-24 11:08:00,80.3,68.8,29.84,SE,124,0.0,7.0,68,0.00,,,0.00,VWS V14.01,2013-06-24 16:08:00,
2013-06-24 11:14:00,80.7,69.2,29.83,South,177,0.0,7.0,68,0.00,,,0.00,VWS V14.01,2013-06-24 16:14:00,
2013-06-24 11:19:00,81.3,69.7,29.83,ESE,103,1.0,7.0,68,0.00,,,0.00,VWS V14.01,2013-06-24 16:19:00,
2013-06-24 11:24:00,81.4,68.5,29.83,SE,141,3.0,7.0,65,0.00,,,0.00,VWS V14.01,2013-06-24 16:24:00,
2013-06-24 11:30:00,81.8,69.3,29.83,SSE,150,2.0,7.0,66,0.00,,,0.00,VWS V14.01,2013-06-24 16:30:00,
2013-06-24 11:35:00,81.3,68.9,29.82,ESE,118,2.0,5.0,66,0.00,,,0.00,VWS V14.01,2013-06-24 16:35:00,
2013-06-24 11:40:00,81.2,69.6,29.82,SSE,149,2.0,5.0,68,0.00,,,0.00,VWS V14.01,2013-06-24 16:40:00,
2013-06-24 11:46:00,81.3,68.9,29.82,SSE,165,1.0,7.0,66,0.00,,,0.00,VWS V14.01,2013-06-24 16:46:00,
2013-06-24 11:51:00,81.4,68.1,29.82,East,97,2.0,7.0,64,0.00,,,0.00,VWS V14.01,2013-06-24 16:51:00,
2013-06-24 11:56:00,81.4,69.0,29.82,SE,145,4.0,7.0,66,0.00,,,0.00,VWS V14.01,2013-06-24 16:56:00,
2013-06-24 12:01:00,81.6,70.0,29.83,NW,322,1.0,7.0,68,0.00,,,0.00,VWS V14.01,2013-06-24 17:01:00,
2013-06-24 12:07:00,81.7,69.7,29.83,SE,125,3.0,7.0,67,0.00,,,0.00,VWS V14.01,2013-06-24 17:07:00,
2013-06-24 12:12:00,81.3,69.3,29.82,East,100,5.0,8.0,67,0.00,,,0.00,VWS V14.01,2013-06-24 17:12:00,
2013-06-24 12:17:00,80.9,68.5,29.82,South,191,0.0,8.0,66,0.00,,,0.00,VWS V14.01,2013-06-24 17:17:00,
2013-06-24 12:22:00,80.8,69.3,29.82,ESE,103,1.0,8.0,68,0.00,,,0.00,VWS V14.01,2013-06-24 17:22:00,
2013-06-24 12:27:00,80.7,69.2,29.82,ESE,112,2.0,8.0,68,0.00,,,0.00,VWS V14.01,2013-06-24 17:27:00,
2013-06-24 12:32:00,80.6,69.5,29.82,East,99,3.0,8.0,69,0.00,,,0.00,VWS V14.01,2013-06-24 17:32:00,
2013-06-24 12:38:00,80.5,69.0,29.82,SE,126,3.0,5.0,68,0.00,,,0.00,VWS V14.01,2013-06-24 17:38:00,
2013-06-24 12:43:00,80.4,69.3,29.82,ESE,116,1.0,7.0,69,0.00,,,0.00,VWS V14.01,2013-06-24 17:43:00,
2013-06-24 12:48:00,80.3,69.2,29.81,WNW,296,0.0,7.0,69,0.00,,,0.00,VWS V14.01,2013-06-24 17:48:00,
2013-06-24 12:53:00,80.2,69.1,29.81,East,91,3.0,9.0,69,0.00,,,0.00,VWS V14.01,2013-06-24 17:53:00,
2013-06-24 12:59:00,80.1,69.4,29.82,SSE,163,1.0,9.0,70,0.00,,,0.00,VWS V14.01,2013-06-24 17:59:00,
2013-06-24 13:04:00,79.9,69.7,29.82,SW,225,0.0,5.0,71,0.00,,,0.00,VWS V14.01,2013-06-24 18:04:00,
2013-06-24 13:09:00,79.8,69.6,29.81,SE,139,2.0,8.0,71,0.00,,,0.00,VWS V14.01,2013-06-24 18:09:00,
2013-06-24 13:14:00,79.8,70.0,29.81,ESE,112,3.0,8.0,72,0.00,,,0.00,VWS V14.01,2013-06-24 18:14:00,
2013-06-24 13:20:00,79.8,70.0,29.81,ESE,116,5.0,8.0,72,0.00,,,0.00,VWS V14.01,2013-06-24 18:20:00,
2013-06-24 13:25:00,80.0,70.2,29.80,WNW,290,1.0,8.0,72,0.00,,,0.00,VWS V14.01,2013-06-24 18:25:00,
2013-06-24 13:30:00,80.1,69.9,29.80,SE,129,2.0,8.0,71,0.00,,,0.00,VWS V14.01,2013-06-24 18:30:00,
2013-06-24 13:37:00,80.1,70.3,29.80,South,175,6.0,9.0,72,0.00,,,0.00,VWS V14.01,2013-06-24 18:37:00,
2013-06-24 13:42:00,79.9,70.1,29.80,ESE,115,3.0,9.0,72,0.00,,,0.00,VWS V14.01,2013-06-24 18:42:00,
2013-06-24 13:47:00,79.8,70.4,29.80,ESE,110,3.0,9.0,73,0.00,,,0.00,VWS V14.01,2013-06-24 18:47:00,
2013-06-24 13:53:00,79.5,70.5,29.80,NNW,347,4.0,9.0,74,0.00,,,0.00,VWS V14.01,2013-06-24 18:53:00,
2013-06-24 13:58:00,78.6,70.4,29.80,ESE,110,3.0,13.0,76,0.00,,,0.00,VWS V14.01,2013-06-24 18:58:00,
2013-06-24 14:04:00,77.3,70.3,29.80,ENE,74,5.0,9.0,79,0.00,,,0.00,VWS V14.01,2013-06-24 19:04:00,
2013-06-24 14:09:00,76.4,69.8,29.80,SW,228,3.0,9.0,80,0.00,,,0.00,VWS V14.01,2013-06-24 19:09:00,
2013-06-24 14:15:00,76.2,70.3,29.79,SE,143,3.0,9.0,82,0.00,,,0.00,VWS V14.01,2013-06-24 19:15:00,
2013-06-24 14:20:00,76.0,70.1,29.78,South,183,1.0,9.0,82,0.00,,,0.00,VWS V14.01,2013-06-24 19:20:00,
2013-06-24 14:25:00,76.0,70.8,29.78,ESE,108,2.0,9.0,84,0.00,,,0.00,VWS V14.01,2013-06-24 19:25:00,
2013-06-24 14:30:00,75.9,70.4,29.78,ESE,110,9.0,9.0,83,0.00,,,0.00,VWS V14.01,2013-06-24 19:30:00,
2013-06-24 14:37:00,75.8,70.6,29.77,WNW,297,1.0,8.0,84,0.00,,,0.00,VWS V14.01,2013-06-24 19:37:00,
2013-06-24 14:42:00,75.7,70.5,29.77,North,354,1.0,9.0,84,0.00,,,0.00,VWS V14.01,2013-06-24 19:42:00,
2013-06-24 14:47:00,75.9,70.7,29.76,SE,142,3.0,9.0,84,0.00,,,0.00,VWS V14.01,2013-06-24 19:47:00,
2013-06-24 14:52:00,76.0,70.5,29.76,South,180,0.0,9.0,83,0.00,,,0.00,VWS V14.01,2013-06-24 19:52:00,
2013-06-24 14:57:00,76.0,70.5,29.76,ESE,110,2.0,9.0,83,0.00,,,0.00,VWS V14.01,2013-06-24 19:57:00,
2013-06-24 15:02:00,76.0,70.8,29.76,ENE,72,2.0,9.0,84,0.00,,,0.00,VWS V14.01,2013-06-24 20:02:00,
2013-06-24 15:08:00,76.2,70.7,29.76,SW,233,1.0,9.0,83,0.00,,,0.00,VWS V14.01,2013-06-24 20:08:00,
2013-06-24 15:13:00,76.2,71.0,29.76,NW,320,1.0,9.0,84,0.00,,,0.00,VWS V14.01,2013-06-24 20:13:00,
2013-06-24 15:18:00,76.2,71.0,29.76,ESE,121,1.0,9.0,84,0.00,,,0.00,VWS V14.01,2013-06-24 20:18:00,
2013-06-24 15:23:00,76.3,70.8,29.77,NE,42,3.0,9.0,83,0.00,,,0.00,VWS V14.01,2013-06-24 20:23:00,
2013-06-24 15:28:00,76.4,70.1,29.77,NE,52,0.0,9.0,81,0.00,,,0.00,VWS V14.01,2013-06-24 20:28:00,
2013-06-24 15:33:00,76.2,70.3,29.77,SE,130,2.0,9.0,82,0.00,,,0.00,VWS V14.01,2013-06-24 20:33:00,
2013-06-24 15:38:00,76.0,70.1,29.77,ESE,108,0.0,3.0,82,0.00,,,0.00,VWS V14.01,2013-06-24 20:38:00,
2013-06-24 15:43:00,75.9,70.0,29.77,SSW,204,1.0,3.0,82,0.00,,,0.00,VWS V14.01,2013-06-24 20:43:00,
2013-06-24 15:48:00,75.8,69.9,29.77,ESE,112,0.0,3.0,82,0.00,,,0.00,VWS V14.01,2013-06-24 20:48:00,
2013-06-24 15:54:00,75.9,70.4,29.77,ESE,102,0.0,3.0,83,0.00,,,0.00,VWS V14.01,2013-06-24 20:54:00,
2013-06-24 15:59:00,76.0,70.1,29.77,ESE,115,0.0,3.0,82,0.00,,,0.00,VWS V14.01,2013-06-24 20:59:00,
2013-06-24 16:05:00,75.9,69.7,29.78,SE,127,1.0,3.0,81,0.00,,,0.00,VWS V14.01,2013-06-24 21:05:00,
2013-06-24 16:10:00,75.8,69.9,29.78,SW,230,1.0,5.0,82,0.00,,,0.00,VWS V14.01,2013-06-24 21:10:00,
2013-06-24 16:15:00,75.7,69.8,29.78,WSW,241,0.0,7.0,82,0.00,,,0.00,VWS V14.01,2013-06-24 21:15:00,
2013-06-24 16:20:00,75.6,69.7,29.78,SSE,167,1.0,7.0,82,0.00,,,0.00,VWS V14.01,2013-06-24 21:20:00,
2013-06-24 16:26:00,75.5,69.6,29.79,ENE,71,0.0,7.0,82,0.00,,,0.00,VWS V14.01,2013-06-24 21:26:00,
2013-06-24 16:31:00,75.4,69.9,29.79,West,260,2.0,7.0,83,0.00,,,0.00,VWS V14.01,2013-06-24 21:31:00,
2013-06-24 16:36:00,75.4,69.9,29.78,West,269,1.0,2.0,83,0.00,,,0.00,VWS V14.01,2013-06-24 21:36:00,
2013-06-24 16:42:00,75.3,69.1,29.78,SW,230,0.0,3.0,81,0.00,,,0.00,VWS V14.01,2013-06-24 21:42:00,
2013-06-24 16:47:00,75.3,69.1,29.78,SW,230,0.0,3.0,81,0.00,,,0.00,VWS V14.01,2013-06-24 21:47:00,
2013-06-24 16:52:00,75.4,69.5,29.78,WSW,243,0.0,3.0,82,0.00,,,0.00,VWS V14.01,2013-06-24 21:52:00,
2013-06-24 16:57:00,75.5,69.3,29.78,WSW,243,0.0,3.0,81,0.00,,,0.00,VWS V14.01,2013-06-24 21:57:00,
2013-06-24 17:03:00,75.6,69.4,29.78,WSW,253,1.0,3.0,81,0.00,,,0.00,VWS V14.01,2013-06-24 22:03:00,
2013-06-24 17:08:00,75.6,69.0,29.78,WSW,253,0.0,1.0,80,0.00,,,0.00,VWS V14.01,2013-06-24 22:08:00,
2013-06-24 17:13:00,75.7,69.5,29.78,SW,232,2.0,4.0,81,0.00,,,0.00,VWS V14.01,2013-06-24 22:13:00,
2013-06-24 17:18:00,75.8,69.2,29.78,WSW,254,0.0,4.0,80,0.00,,,0.00,VWS V14.01,2013-06-24 22:18:00,
2013-06-24 17:23:00,75.9,68.2,29.78,WSW,249,1.0,4.0,77,0.00,,,0.00,VWS V14.01,2013-06-24 22:23:00,
2013-06-24 17:28:00,75.9,67.8,29.78,ESE,106,1.0,4.0,76,0.00,,,0.00,VWS V14.01,2013-06-24 22:28:00,
2013-06-24 17:33:00,75.9,68.2,29.78,West,278,3.0,4.0,77,0.00,,,0.00,VWS V14.01,2013-06-24 22:33:00,
2013-06-24 17:38:00,76.0,67.9,29.78,South,191,0.0,3.0,76,0.00,,,0.00,VWS V14.01,2013-06-24 22:38:00,
2013-06-24 17:44:00,76.3,68.9,29.78,WSW,256,0.0,3.0,78,0.00,,,0.00,VWS V14.01,2013-06-24 22:44:00,
2013-06-24 17:50:00,76.5,68.4,29.78,WNW,285,0.0,3.0,76,0.00,,,0.00,VWS V14.01,2013-06-24 22:50:00,
2013-06-24 17:55:00,76.4,67.9,29.77,ESE,123,0.0,3.0,75,0.00,,,0.00,VWS V14.01,2013-06-24 22:55:00,
2013-06-24 18:00:00,76.3,68.2,29.77,SSE,164,0.0,3.0,76,0.00,,,0.00,VWS V14.01,2013-06-24 23:00:00,
2013-06-24 18:05:00,76.1,68.0,29.77,ESE,108,0.0,2.0,76,0.00,,,0.00,VWS V14.01,2013-06-24 23:05:00,
2013-06-24 18:11:00,76.0,67.5,29.77,East,95,2.0,5.0,75,0.00,,,0.00,VWS V14.01,2013-06-24 23:11:00,
2013-06-24 18:16:00,75.9,68.2,29.77,ESE,121,0.0,5.0,77,0.00,,,0.00,VWS V14.01,2013-06-24 23:16:00,
2013-06-24 18:22:00,75.8,68.5,29.77,ESE,121,1.0,5.0,78,0.00,,,0.00,VWS V14.01,2013-06-24 23:22:00,
2013-06-24 18:27:00,75.7,68.0,29.78,SE,125,1.0,5.0,77,0.00,,,0.00,VWS V14.01,2013-06-24 23:27:00,
2013-06-24 18:32:00,75.7,68.0,29.78,ESE,106,0.0,5.0,77,0.00,,,0.00,VWS V14.01,2013-06-24 23:32:00,
2013-06-24 18:37:00,75.6,67.9,29.78,WNW,284,0.0,2.0,77,0.00,,,0.00,VWS V14.01,2013-06-24 23:37:00,
2013-06-24 18:42:00,75.6,67.9,29.78,ESE,102,2.0,2.0,77,0.00,,,0.00,VWS V14.01,2013-06-24 23:42:00,
2013-06-24 18:48:00,75.4,68.1,29.78,SSE,159,0.0,2.0,78,0.00,,,0.00,VWS V14.01,2013-06-24 23:48:00,
2013-06-24 18:53:00,75.3,67.6,29.78,South,184,3.0,3.0,77,0.00,,,0.00,VWS V14.01,2013-06-24 23:53:00,
2013-06-24 18:58:00,75.2,67.5,29.79,West,264,0.0,3.0,77,0.00,,,0.00,VWS V14.01,2013-06-24 23:58:00,
2013-06-24 19:03:00,75.1,67.4,29.79,ESE,102,0.0,3.0,77,0.00,,,0.00,VWS V14.01,2013-06-25 00:03:00,
2013-06-24 19:09:00,74.8,67.1,29.78,SE,129,2.0,4.0,77,0.00,,,0.00,VWS V14.01,2013-06-25 00:09:00,
2013-06-24 19:15:00,74.6,67.3,29.78,SE,139,0.0,6.0,78,0.00,,,0.00,VWS V14.01,2013-06-25 00:15:00,
2013-06-24 19:20:00,74.5,67.2,29.78,SE,146,1.0,6.0,78,0.00,,,0.00,VWS V14.01,2013-06-25 00:20:00,
2013-06-24 19:25:00,74.4,67.1,29.78,ESE,121,1.0,6.0,78,0.00,,,0.00,VWS V14.01,2013-06-25 00:25:00,
2013-06-24 19:31:00,74.2,66.9,29.77,ESE,102,1.0,6.0,78,0.00,,,0.00,VWS V14.01,2013-06-25 00:31:00,
2013-06-24 19:36:00,74.2,66.9,29.77,SE,135,1.0,1.0,78,0.00,,,0.00,VWS V14.01,2013-06-25 00:36:00,
2013-06-24 19:41:00,74.0,66.7,29.77,ESE,116,2.0,4.0,78,0.00,,,0.00,VWS V14.01,2013-06-25 00:41:00,
2013-06-24 19:46:00,73.9,66.6,29.77,SE,135,0.0,5.0,78,0.00,,,0.00,VWS V14.01,2013-06-25 00:46:00,
2013-06-24 19:52:00,73.9,67.0,29.76,ESE,122,1.0,5.0,79,0.00,,,0.00,VWS V14.01,2013-06-25 00:52:00,
2013-06-24 19:57:00,73.8,66.9,29.76,South,170,2.0,5.0,79,0.00,,,0.00,VWS V14.01,2013-06-25 00:57:00,
2013-06-24 20:02:00,73.7,66.8,29.76,ENE,77,0.0,5.0,79,0.00,,,0.00,VWS V14.01,2013-06-25 01:02:00,
2013-06-24 20:07:00,73.6,67.1,29.76,SSE,165,0.0,4.0,80,0.00,,,0.00,VWS V14.01,2013-06-25 01:07:00,
2013-06-24 20:12:00,73.5,66.6,29.77,SE,135,0.0,4.0,79,0.00,,,0.00,VWS V14.01,2013-06-25 01:12:00,
2013-06-24 20:17:00,73.4,66.9,29.77,SSE,159,0.0,4.0,80,0.00,,,0.00,VWS V14.01,2013-06-25 01:17:00,
2013-06-24 20:22:00,73.3,66.8,29.77,SE,136,2.0,6.0,80,0.00,,,0.00,VWS V14.01,2013-06-25 01:22:00,
2013-06-24 20:27:00,73.1,66.6,29.76,SSE,147,2.0,6.0,80,0.00,,,0.00,VWS V14.01,2013-06-25 01:27:00,
2013-06-24 20:33:00,73.1,66.6,29.77,ESE,112,2.0,6.0,80,0.00,,,0.00,VWS V14.01,2013-06-25 01:33:00,
2013-06-24 20:38:00,73.0,66.8,29.76,SE,128,0.0,3.0,81,0.00,,,0.00,VWS V14.01,2013-06-25 01:38:00,
2013-06-24 20:43:00,72.9,66.7,29.77,SE,134,0.0,3.0,81,0.00,,,0.00,VWS V14.01,2013-06-25 01:43:00,
2013-06-24 20:49:00,72.8,66.6,29.77,ESE,106,0.0,3.0,81,0.00,,,0.00,VWS V14.01,2013-06-25 01:49:00,
2013-06-24 20:55:00,72.6,66.4,29.76,South,174,0.0,3.0,81,0.00,,,0.00,VWS V14.01,2013-06-25 01:55:00,
2013-06-24 21:00:00,72.5,66.7,29.76,SE,139,0.0,3.0,82,0.00,,,0.00,VWS V14.01,2013-06-25 02:00:00,
2013-06-24 21:05:00,72.4,66.6,29.76,ESE,112,0.0,2.0,82,0.00,,,0.00,VWS V14.01,2013-06-25 02:05:00,
2013-06-24 21:11:00,72.2,66.4,29.76,ESE,111,1.0,2.0,82,0.00,,,0.00,VWS V14.01,2013-06-25 02:11:00,
2013-06-24 21:16:00,72.1,66.3,29.76,ESE,106,1.0,2.0,82,0.00,,,0.00,VWS V14.01,2013-06-25 02:16:00,
2013-06-24 21:21:00,72.0,66.2,29.76,East,99,1.0,2.0,82,0.00,,,0.00,VWS V14.01,2013-06-25 02:21:00,
2013-06-24 21:26:00,72.0,66.2,29.77,South,191,0.0,3.0,82,0.00,,,0.00,VWS V14.01,2013-06-25 02:26:00,
2013-06-24 21:31:00,71.9,66.1,29.77,East,89,0.0,3.0,82,0.00,,,0.00,VWS V14.01,2013-06-25 02:31:00,
2013-06-24 21:37:00,71.9,66.1,29.76,SSE,168,0.0,3.0,82,0.00,,,0.00,VWS V14.01,2013-06-25 02:37:00,
2013-06-24 21:43:00,71.8,65.7,29.76,ESE,112,0.0,3.0,81,0.00,,,0.00,VWS V14.01,2013-06-25 02:43:00,
2013-06-24 21:48:00,71.8,65.7,29.76,South,171,0.0,3.0,81,0.00,,,0.00,VWS V14.01,2013-06-25 02:48:00,
2013-06-24 21:53:00,71.7,65.6,29.76,SE,135,0.0,3.0,81,0.00,,,0.00,VWS V14.01,2013-06-25 02:53:00,
2013-06-24 21:58:00,71.5,65.7,29.76,SE,135,0.0,3.0,82,0.00,,,0.00,VWS V14.01,2013-06-25 02:58:00,
2013-06-24 22:03:00,71.3,65.9,29.77,SE,135,0.0,3.0,83,0.00,,,0.00,VWS V14.01,2013-06-25 03:03:00,
2013-06-24 22:08:00,71.1,65.7,29.77,SE,135,0.0,0.0,83,0.00,,,0.00,VWS V14.01,2013-06-25 03:08:00,
2013-06-24 22:13:00,70.9,65.5,29.77,SE,135,0.0,0.0,83,0.00,,,0.00,VWS V14.01,2013-06-25 03:13:00,
2013-06-24 22:18:00,70.7,65.6,29.78,SE,135,0.0,0.0,84,0.00,,,0.00,VWS V14.01,2013-06-25 03:18:00,
2013-06-24 22:23:00,70.4,65.3,29.78,SE,135,0.0,1.0,84,0.00,,,0.00,VWS V14.01,2013-06-25 03:23:00,
2013-06-24 22:29:00,70.1,65.4,29.78,SE,135,0.0,1.0,85,0.00,,,0.00,VWS V14.01,2013-06-25 03:29:00,
2013-06-24 22:34:00,69.8,65.1,29.78,SE,135,0.0,1.0,85,0.00,,,0.00,VWS V14.01,2013-06-25 03:34:00,
2013-06-24 22:39:00,69.4,65.0,29.78,SE,135,0.0,0.0,86,0.00,,,0.00,VWS V14.01,2013-06-25 03:39:00,
2013-06-24 22:45:00,69.0,65.0,29.78,SE,135,0.0,0.0,87,0.00,,,0.00,VWS V14.01,2013-06-25 03:45:00,
2013-06-24 22:51:00,68.6,64.6,29.79,SE,135,0.0,0.0,87,0.00,,,0.00,VWS V14.01,2013-06-25 03:51:00,
2013-06-24 22:57:00,68.3,64.6,29.79,SE,135,0.0,1.0,88,0.00,,,0.00,VWS V14.01,2013-06-25 03:57:00,
2013-06-24 23:01:00,68.1,64.4,29.79,ESE,118,0.0,1.0,88,0.00,,,0.00,VWS V14.01,2013-06-25 04:01:00,
2013-06-24 23:02:00,68.1,64.4,29.79,ESE,119,0.0,2.0,88,0.00,,,0.00,VWS V14.01,2013-06-25 04:02:00,
2013-06-24 23:07:00,68.0,64.3,29.79,SE,135,1.0,5.0,88,0.00,,,0.00,VWS V14.01,2013-06-25 04:07:00,
2013-06-24 23:12:00,68.0,64.3,29.79,ESE,108,0.0,5.0,88,0.00,,,0.00,VWS V14.01,2013-06-25 04:12:00,
2013-06-24 23:17:00,68.1,64.4,29.79,SE,131,1.0,5.0,88,0.00,,,0.00,VWS V14.01,2013-06-25 04:17:00,
2013-06-24 23:22:00,68.1,64.4,29.79,ESE,121,2.0,5.0,88,0.00,,,0.00,VWS V14.01,2013-06-25 04:22:00,
2013-06-24 23:27:00,68.1,64.4,29.79,ESE,119,1.0,5.0,88,0.00,,,0.00,VWS V14.01,2013-06-25 04:27:00,
2013-06-24 23:32:00,68.1,64.4,29.79,ESE,104,0.0,5.0,88,0.00,,,0.00,VWS V14.01,2013-06-25 04:32:00,
2013-06-24 23:37:00,68.2,64.5,29.79,SSE,166,0.0,2.0,88,0.00,,,0.00,VWS V14.01,2013-06-25 04:37:00,
2013-06-24 23:42:00,68.2,64.2,29.79,ESE,113,1.0,3.0,87,0.00,,,0.00,VWS V14.01,2013-06-25 04:42:00,
2013-06-24 23:47:00,68.3,64.3,29.79,SE,131,1.0,5.0,87,0.00,,,0.00,VWS V14.01,2013-06-25 04:47:00,
2013-06-24 23:52:00,68.4,64.4,29.79,ESE,118,0.0,5.0,87,0.00,,,0.00,VWS V14.01,2013-06-25 04:52:00,
2013-06-24 23:58:00,68.3,64.3,29.78,ESE,106,0.0,7.0,87,0.00,,,0.00,VWS V14.01,2013-06-25 04:58:00,